User: anonymous   Login
Location: Rostock
(54.0884°N, 12.1234°E)
Time: 06:21:46
(UTC+02:00)
Language:

ISS - Orbit

View from above orbital plane
View from above orbital plane
View from above satellite
View from above satellite

Ground track
Ground track

The orbit data is extracted from the following two-line orbital elements,

1 25544U 98067A   18230.58041819  .00016717  00000-0  10270-3 0  9018
2 25544  51.6370  67.7646 0005624  74.0605 286.1167 15.53842621  8218
Epoch (UTC): 18 August 2018 13:55:48
Eccentricity: 0.0005624
inclination: 51.6370°
perigee height: 402 km
apogee height: 409 km
right ascension of ascending node: 67.7646°
argument of perigee: 74.0605°
revolutions per day: 15.53842621
mean anomaly at epoch: 286.1167°
orbit number at epoch: 821

The dashed part of the orbit path shows where the satellite is in the earth's shadow,  

DLR